Location: Batiz
(45.7667°N, 23.0000°E)
Time: 01:35:00
(UTC+00:00)

Daily predictions for brighter satellites

Satellite Brightness Start Highest point End
(mag) Time Altitude Azimuth Time Altitude Azimuth Time Altitude Azimuth
CZ-3 R/B 4.4 01:45:41 44° SSW 01:45:41 44° SSW 01:57:05 10° SE
Cosmos 2082 Rocket 4.1 02:07:34 24° ESE 02:08:11 24° ESE 02:12:34 10° NE
COSMOS 2455 4.3 02:14:59 33° NE 02:14:59 33° NE 02:19:50 10° ESE
Cosmos 1980 Rocket 3.4 02:32:25 35° SE 02:32:25 35° SE 02:35:43 10° SE
Cosmos 2098 Rocket 4.5 02:38:52 49° ESE 02:38:52 49° ESE 02:43:31 10° SSE
Cosmos 2333 Rocket 4.3 02:51:54 15° N 02:54:54 22° NE 02:59:16 10° E
Cosmos 2142 Rocket 4.4 03:02:16 41° N 03:04:37 83° E 03:10:50 10° S
USA 234 4.1 03:04:02 10° ENE 03:09:47 34° N 03:10:26 33° NNW
Helios 1A Rocket 4.3 03:19:03 10° SE 03:21:57 28° ENE 03:22:13 28° ENE
Cosmos 2322 Rocket 4.1 03:19:55 12° N 03:24:07 26° NE 03:28:46 10° ESE
SL-4 R/B 3.8 03:29:31 19° NE 03:29:31 19° NE 03:30:48 10° ENE
Nadezhda 4 Rocket 4.0 03:24:05 10° S 03:30:23 83° E 03:36:42 10° N
NOSS 2-1 (D) 3.4 03:32:01 73° ESE 03:32:01 73° ESE 03:36:24 10° SE
Cosmos 1726 Rocket 4.1 03:31:07 26° N 03:33:26 57° ENE 03:37:35 10° SSE
USA 59 Rocket -0.2 03:34:44 78° SSE 03:34:44 78° SSE 03:39:17 10° SE
Cosmos 2237 4.2 03:33:42 34° NNW 03:36:19 80° ENE 03:42:01 10° SSE
CZ-4 R/B 4.0 03:32:42 10° NNE 03:37:20 69° ESE 03:41:56 10° S
NOSS 3-1 (C) 4.1 03:34:05 30° NNW 03:38:10 81° NE 03:47:04 10° SE
NOSS 2-1 (E) 3.3 03:39:18 72° NNE 03:39:28 74° NE 03:44:05 10° SE
COSMOS 2406 3.5 03:34:38 10° SSW 03:40:15 69° ESE 03:45:54 10° NNE
Cosmos 841 Rocket 3.4 03:36:37 10° SSW 03:41:50 86° ESE 03:47:07 10° NNE
BREEZE-M DEB (TANK) 4.3 03:44:05 36° W 03:46:03 46° SW 03:49:47 10° SE
Cosmos 1933 4.0 03:52:07 37° SSW 03:52:07 37° SSW 03:54:39 10° S
SL-16 R/B 2.6 03:46:48 18° NNW 03:51:03 60° ENE 03:56:38 10° SE
Cosmos 2082 Rocket 2.2 03:49:32 33° WSW 03:51:50 56° WNW 03:57:22 10° NNE
Cosmos 1892 Rocket 3.8 03:47:40 10° S 03:51:59 69° E 03:56:22 10° NNE
NOSS 2-1 (C) 3.3 03:58:58 54° W 03:59:31 62° SW 04:04:14 10° SSE
COSMOS 2455 3.0 03:58:10 33° WNW 04:00:37 54° WSW 04:06:27 10° S
Meteor 2-20 4.5 03:55:58 10° N 04:02:08 82° E 04:08:12 10° S
IRS-1D 3.4 03:58:15 10° N 04:03:11 61° WNW 04:08:10 10° SSW
Cosmos 1898 Rocket 3.7 04:02:27 33° NW 04:04:25 50° WSW 04:09:29 10° S
ATLAS 3B R/B 4.5 03:59:03 13° NNW 04:04:30 26° NNE 04:10:43 10° ENE
BREEZE-M DEB (TANK) 2.9 04:12:06 50° WNW 04:12:33 58° NNW 04:14:51 10° ENE
Cosmos 1980 Rocket 3.4 04:14:14 21° WSW 04:14:14 21° WSW 04:17:47 10° SSW
Cosmos 2278 3.8 04:09:09 14° NNW 04:14:10 78° ENE 04:19:49 10° SSE
Cosmos 1627 Rocket 4.4 04:11:05 10° S 04:17:12 83° W 04:23:22 10° N
Cosmos 2369 4.3 04:16:16 26° WNW 04:18:25 35° WSW 04:23:29 10° S
Cosmos-2242 3.1 04:14:11 10° N 04:18:26 76° E 04:22:38 10° SSE
COSMO-SKYMED 1 2.6 04:16:07 10° S 04:20:07 50° W 04:22:50 19° NNW
BREEZE-M DEB (TANK) 2.9 04:20:47 36° NW 04:21:26 45° N 04:25:45 10° ENE
Meteor 2-2 Rocket 4.3 04:16:37 10° N 04:22:20 87° E 04:28:07 10° S
SKYMED 2 4.2 04:18:30 10° SSW 04:22:25 33° W 04:24:01 25° WNW
Meteor 2-20 Rocket 4.3 04:18:31 10° N 04:24:20 86° E 04:30:02 10° S
Cosmos 2058 Rocket 3.0 04:20:20 10° N 04:24:48 84° W 04:29:12 10° S
Cosmos 1484 Rocket 2.3 04:24:50 10° N 04:28:16 81° WNW 04:31:39 10° SSW
Tiangong 0.0 04:27:21 15° SW 04:28:28 18° SSW 04:30:45 10° SSE
Cosmos 1937 Rocket 3.9 04:25:55 19° NW 04:29:05 41° WSW 04:33:51 10° S
NOAA 12 4.4 04:24:22 10° N 04:29:20 42° WNW 04:34:16 10° SW
Cosmos 220 Rocket 4.5 04:28:08 11° SW 04:31:38 33° WNW 04:35:23 10° N
Okean 1 2.9 04:29:53 10° N 04:33:28 85° W 04:37:00 10° S
ARIANE 5 R/B 4.2 04:29:10 10° NNE 04:33:59 37° E 04:38:48 10° SSE
Cosmos 2333 Rocket 2.2 04:34:05 10° NNW 04:39:53 79° WSW 04:45:36 10° SSE
BREEZE-M DEB (TANK) 4.5 04:16:14 10° WSW 04:40:14 74° NNW 04:45:22 10° ENE
NOSS 3-1 (A) 4.1 04:37:46 12° NW 04:44:43 86° SW 04:53:42 10° SSE
IRIDIUM 114 4.4 04:40:48 10° S 04:46:01 88° E 04:51:17 10° N
Cosmos 2360 Rocket 2.3 04:41:00 10° NNW 04:46:40 82° ENE 04:52:17 10° SSE
Cosmos 2026 Rocket 4.1 04:41:07 10° SSW 04:46:55 47° WNW 04:52:48 10° N
SMAP 3.5 04:42:25 10° NNE 04:47:04 67° ESE 04:51:42 10° S
BREEZE M DEB (TANK) 2.7 04:47:29 10° SW 04:49:44 48° SE 04:53:53 10° ENE
USA 234 4.1 04:45:49 10° E 04:51:50 40° NNE 04:57:47 10° NW
Cosmos 1814 Rocket 4.0 04:47:40 10° SSW 04:52:53 89° ESE 04:58:13 10° NNE
Landsat 7 4.4 04:48:24 10° NNE 04:53:03 62° E 04:57:38 10° S
CBERS-1 3.9 04:48:54 10° N 04:54:00 71° WNW 04:59:03 10° SSW
Cosmos 2237 Rocket 4.5 04:51:50 10° N 04:54:33 13° NE 04:57:14 10° ENE
Helios 1A Rocket 4.0 04:52:15 10° SW 04:54:35 18° W 04:55:47 15° WNW
IRIDIUM 103 4.3 04:49:58 10° S 04:55:11 77° W 05:00:26 10° N
IGS 5A 3.6 04:55:22 10° N 04:59:12 46° WNW 05:03:01 10° SW
Cosmos 1758 Rocket 3.5 04:58:07 10° SSW 05:02:32 79° W 05:06:58 10° N
Meteor 2-6 Rocket 4.4 04:57:19 10° NNW 05:03:18 78° W 05:09:13 10° S
Cosmos 2219 Rocket 2.5 04:59:53 10° NNW 05:05:34 70° ENE 05:11:11 10° SE
SL-4 R/B 2.0 05:03:15 12° NW 05:06:02 45° NNE 05:09:05 10° E
Thor Agena Rocket 3.4 05:01:14 10° NNE 05:06:18 79° WNW 05:11:19 10° SSW
S3M 4.5 05:00:26 10° N 05:06:37 64° E 05:12:41 10° SSE
Cosmos 1743 2.2 05:04:36 10° S 05:07:50 88° W 05:11:05 10° N
Cosmos 2322 Rocket 2.3 05:02:56 10° NNW 05:08:34 62° WSW 05:14:08 10° S
Cosmos 1553 Rocket 4.1 05:03:03 10° NNW 05:09:20 62° W 05:15:37 10° S
Cosmos 1092 Rocket 4.5 05:05:07 10° SW 05:10:53 37° WNW 05:16:37 10° N
Cosmos 1733 2.3 05:10:22 10° SW 05:12:01 27° WNW 05:13:41 10° NNW
IRIDIUM 106 4.5 05:08:28 10° SSW 05:13:33 53° W 05:18:40 10° N
Cosmos 2333 4.3 05:17:16 10° NNW 05:22:58 67° WSW 05:28:36 10° SSE
USA 59 Rocket 2.3 05:22:51 10° WSW 05:23:08 10° WSW 05:23:25 10° WSW
SJ-12 3.7 05:19:52 10° N 05:23:40 68° WNW 05:27:26 10° SSW
YAOGAN 1 4.3 05:20:55 10° NNE 05:24:54 37° E 05:28:50 10° SSE
COSMOS 2406 4.3 05:20:35 10° W 05:25:03 23° NW 05:29:34 10° N
